"2009-01-26 00:00:00",573476,7.179,75.37,2.317,0.738,-6.602,95.09579,-13.18,-11.87,91.5,0,108.7,13.96,-12.47,37.4
"2009-01-26 00:00:30",573477,7.39,73.95,3.805,0.737,-6.744,95.09606,-13.18,-11.87,91.5,0,108.7,13.96,-12.47,35.9
"2009-01-26 00:01:00",573478,7.018,72.11,4.161,0.73,-6.745,95.09237,-13.19,-11.87,91.5,0,108.7,13.96,-12.48,34.1
"2009-01-26 00:01:30",573479,7.08,75.17,2.719,0.68,-6.779,95.09095,-13.19,-11.88,91.5,0,108.7,13.96,-12.49,37.2
"2009-01-26 00:02:00",573480,7.127,75.06,2.965,0.577,-6.636,95.08981,-13.19,-11.86,91.5,0,108.7,13.96,-12.49,37.1
"2009-01-26 00:02:30",573481,6.86,77,2.742,0.629,-6.696,95.08867,-13.2,-11.88,91.5,0,108.7,13.96,-12.49,39.0
"2009-01-26 00:03:00",573482,6.854,78.44,3.464,0.741,-6.688,95.08867,-13.2,-11.87,91.5,0,108.7,13.96,-12.49,40.4
"2009-01-26 00:03:30",573483,7.201,82.3,3.817,0.628,-6.495,95.08867,-13.2,-11.88,91.5,0,108.7,13.96,-12.49,44.3
"2009-01-26 00:04:00",573484,7.002,81.5,3.773,0.625,-6.565,95.08867,-13.2,-11.89,91.5,0,108.7,13.96,-12.49,43.5
"2009-01-26 00:04:30",573485,7.113,77.37,3.735,0.607,-6.886,95.08867,-13.2,-11.89,91.4,0,108.7,13.96,-12.49,39.4
"2009-01-26 00:05:00",573486,7.3,78.92,3.401,0.655,-6.766,95.08867,-13.2,-11.89,91.5,0,108.7,13.96,-12.49,40.9
"2009-01-26 00:05:30",573487,7.455,78.64,3.291,0.63,-6.841,95.08867,-13.2,-11.9,91.5,0,108.7,13.96,-12.49,40.6
"2009-01-26 00:06:00",573488,7.547,81,2.686,0.6,-6.675,95.08867,-13.2,-11.91,91.4,0,108.7,13.96,-12.49,43.0
"2009-01-26 00:06:30",573489,7.472,79.69,4.317,0.405,-6.606,95.08867,-13.2,-11.91,91.4,0,108.7,13.96,-12.49,41.7
"2009-01-26 00:07:00",573490,7.525,81.9,3.268,0.572,-6.581,95.08867,-13.2,-11.9,91.4,0,108.7,13.96,-12.49,43.9
"2009-01-26 00:07:30",573491,7.302,81.8,4.129,0.623,-6.696,95.08867,-13.2,-11.91,91.4,0,108.7,13.96,-12.49,43.8
"2009-01-26 00:08:00",573492,7.26,83.4,2.876,0.637,-6.621,95.08867,-13.2,-11.93,91.4,0,108.7,13.96,-12.49,45.4
"2009-01-26 00:08:30",573493,7.262,83.3,3.558,0.647,-6.692,95.08867,-13.2,-11.92,91.4,0,108.7,13.96,-12.49,45.3
"2009-01-26 00:09:00",573494,7.175,82.8,3.962,0.534,-6.583,95.08839,-13.2,-11.91,91.4,0,108.7,13.96,-12.49,44.8
"2009-01-26 00:09:30",573495,6.827,83.4,3.192,0.631,-6.627,95.08611,-13.2,-11.92,91.5,0,108.7,13.96,-12.50,45.4
"2009-01-26 00:10:00",573496,6.854,83.4,3.253,0.478,-6.54,95.08214,-13.21,-11.92,91.4,0,108.7,13.96,-12.51,45.4
"2009-01-26 00:10:30",573497,6.547,80,3.019,0.622,-6.836,95.07616,-13.23,-11.93,91.4,0,108.7,13.96,-12.52,42.0
"2009-01-26 00:11:00",573498,6.398,84.9,3.419,0.604,-6.721,95.07191,-13.24,-11.93,91.4,0,108.7,13.96,-12.53,46.9
"2009-01-26 00:11:30",573499,6.366,84.4,3.046,0.614,-6.824,95.07162,-13.24,-11.93,91.4,0,108.7,13.96,-12.53,46.4
"2009-01-26 00:12:00",573500,6.436,90.1,3.548,0.463,-6.62,95.07077,-13.24,-11.94,91.4,0,108.7,13.96,-12.54,52.1
"2009-01-26 00:12:30",573501,6.311,89.4,3.464,0.477,-6.655,95.0702,-13.24,-11.95,91.4,0,108.7,13.96,-12.54,51.4
"2009-01-26 00:13:00",573502,6.384,84.8,4.151,0.533,-7.013,95.06992,-13.24,-11.93,91.4,0,108.7,13.96,-12.54,46.8
"2009-01-26 00:13:30",573503,6.398,87.8,3.87,0.627,-6.841,95.06622,-13.25,-11.94,91.4,0,108.7,13.96,-12.55,49.8
"2009-01-26 00:14:00",573504,6.425,89.3,3.365,0.582,-6.82,95.06367,-13.26,-11.96,91.4,0,108.7,13.96,-12.55,51.3
"2009-01-26 00:14:30",573505,6.193,88.1,3.777,0.615,-6.915,95.06281,-13.26,-11.95,91.4,0,108.7,13.96,-12.56,50.1
"2009-01-26 00:15:00",573506,5.824,90.1,3.592,0.534,-6.73,95.06338,-13.26,-11.96,91.4,0,108.7,13.96,-12.56,52.1
"2009-01-26 00:15:30",573507,5.965,90.3,4.535,0.42,-6.799,95.06252,-13.26,-11.95,91.4,0,108.7,13.96,-12.56,52.3
"2009-01-26 00:16:00",573508,6.104,91.2,3.488,0.339,-6.663,95.06367,-13.26,-11.96,91.4,0,108.7,13.96,-12.55,53.2
"2009-01-26 00:16:30",573509,6.089,89.7,3.692,0.554,-6.893,95.06367,-13.26,-11.95,91.4,0,108.7,13.96,-12.55,51.7
"2009-01-26 00:17:00",573510,6.168,86.8,3.709,0.61,-6.893,95.06281,-13.26,-11.94,91.4,0,108.7,13.96,-12.56,48.8
"2009-01-26 00:17:30",573511,6.266,86.8,3.883,0.471,-6.905,95.0631,-13.26,-11.96,91.4,0,108.7,13.96,-12.56,48.8
"2009-01-26 00:18:00",573512,6.216,86,3.719,0.612,-6.753,95.06252,-13.26,-11.95,91.4,0,108.7,13.96,-12.56,48.0
"2009-01-26 00:18:30",573513,6.242,88.7,3.494,0.44,-6.78,95.06252,-13.26,-11.95,91.4,0,108.7,13.97,-12.56,50.7
"2009-01-26 00:19:00",573514,6.39,87.7,3.631,0.521,-6.731,95.06167,-13.26,-11.95,91.4,0,108.7,13.97,-12.56,49.7
"2009-01-26 00:19:30",573515,6.317,86.1,3.75,0.519,-6.807,95.06281,-13.26,-11.95,91.4,0,108.7,13.97,-12.56,48.1
"2009-01-26 00:20:00",573516,6.573,84.1,4.309,0.634,-6.661,95.06081,-13.27,-11.96,91.4,0,108.7,13.96,-12.56,46.1
"2009-01-26 00:20:30",573517,6.654,83.5,3.949,0.521,-6.822,95.05826,-13.27,-11.96,91.4,0,108.7,13.96,-12.57,45.5
"2009-01-26 00:21:00",573518,6.412,84.3,3.834,0.381,-6.648,95.05457,-13.28,-11.96,91.4,0,108.7,13.97,-12.58,46.3
"2009-01-26 00:21:30",573519,6.288,84,3.478,0.555,-6.589,95.05457,-13.28,-11.97,91.4,0,108.7,13.97,-12.58,46.0
"2009-01-26 00:22:00",573520,6.158,83.9,3.047,0.511,-6.579,95.05457,-13.28,-11.98,91.4,0,108.7,13.97,-12.58,45.9
"2009-01-26 00:22:30",573521,6.175,82.1,4.304,0.353,-6.666,95.05484,-13.28,-11.98,91.4,0,108.7,13.97,-12.58,44.1
"2009-01-26 00:23:00",573522,6.335,82.5,3.894,0.431,-6.518,95.05457,-13.28,-11.96,91.4,0,108.7,13.97,-12.58,44.5
"2009-01-26 00:23:30",573523,6.021,82.9,3.818,0.599,-6.704,95.05457,-13.28,-11.97,91.4,0,108.7,13.97,-12.58,44.9
"2009-01-26 00:24:00",573524,6.017,83,3.018,0.63,-6.645,95.05457,-13.28,-11.99,91.4,0,108.7,13.97,-12.58,45.0
"2009-01-26 00:24:30",573525,6.24,85.9,3.984,0.47,-6.526,95.05457,-13.28,-11.99,91.4,0,108.8,13.97,-12.58,47.9
"2009-01-26 00:25:00",573526,6.172,88.4,4.301,0.62,-6.293,95.05457,-13.28,-11.97,91.4,0,108.7,13.97,-12.58,50.4
"2009-01-26 00:25:30",573527,6.235,87.7,4.404,0.476,-6.276,95.05484,-13.28,-12,91.4,0,108.7,13.97,-12.58,49.7
"2009-01-26 00:26:00",573528,6.175,87.5,3.46,0.486,-6.074,95.05428,-13.28,-11.99,91.4,0,108.7,13.97,-12.58,49.5
"2009-01-26 00:26:30",573529,6.055,88.9,4.022,0.503,-6.024,95.05342,-13.29,-12,91.4,0,108.7,13.97,-12.58,50.9
"2009-01-26 00:27:00",573530,5.936,86.2,4.243,0.535,-5.987,95.05114,-13.29,-11.99,91.4,0,108.7,13.97,-12.59,48.2
"2009-01-26 00:27:30",573531,5.918,87.4,4.161,0.616,-6.098,95.0446,-13.31,-12,91.4,0,108.7,13.97,-12.60,49.4
"2009-01-26 00:28:00",573532,6.046,87.9,3.714,0.469,-6.099,95.04404,-13.31,-12.01,91.4,0,108.7,13.97,-12.60,49.9
"2009-01-26 00:28:30",573533,5.77,88,3.559,0.602,-6.033,95.04234,-13.31,-12.01,91.4,0,108.7,13.96,-12.61,50.0
"2009-01-26 00:29:00",573534,5.771,87.2,3.125,0.686,-6.219,95.04234,-13.31,-12,91.4,0,108.7,13.96,-12.61,49.2
"2009-01-26 00:29:30",573535,5.918,86.1,4.052,0.497,-6.168,95.04092,-13.32,-12.02,91.4,0,108.7,13.96,-12.61,48.1
"2009-01-26 00:30:00",573536,5.924,87.7,2.47,0.697,-6.014,95.03892,-13.32,-12.01,91.4,0,108.7,13.96,-12.62,49.7
"2009-01-26 00:30:30",573537,6.128,85.8,3.665,0.297,-5.896,95.04118,-13.32,-11.99,91.4,0,108.7,13.96,-12.61,47.8
"2009-01-26 00:31:00",573538,5.818,86.3,4.426,0.463,-5.832,95.04002,-13.32,-11.99,91.4,0,108.7,13.96,-12.61,48.3
"2009-01-26 00:31:30",573539,5.639,88.2,4.072,0.489,-5.579,95.04659,-13.3,-12.01,91.4,0,108.7,13.96,-12.60,50.2
"2009-01-26 00:32:00",573540,5.604,90.4,3.82,0.442,-5.151,95.05226,-13.29,-12.02,91.4,0,108.7,13.96,-12.58,52.4
"2009-01-26 00:32:30",573541,5.587,86.7,3.955,0.463,-5.353,95.05563,-13.28,-12.01,91.5,0,108.7,13.96,-12.58,48.7
"2009-01-26 00:33:00",573542,5.463,86.8,3.401,0.629,-5.344,95.05592,-13.28,-11.99,91.5,0,108.7,13.96,-12.57,48.8
"2009-01-26 00:33:30",573543,5.764,86.5,3.676,0.591,-5.52,95.05619,-13.28,-11.99,91.5,0,108.7,13.96,-12.57,48.5
"2009-01-26 00:34:00",573544,5.88,89.6,2.406,0.686,-5.488,95.05619,-13.28,-11.98,91.6,0,108.7,13.97,-12.57,51.6
"2009-01-26 00:34:30",573545,5.931,88.4,3.798,0.492,-5.43,95.05673,-13.28,-11.98,91.6,0,108.7,13.97,-12.57,50.4
"2009-01-26 00:35:00",573546,5.956,85.6,3.623,0.688,-5.611,95.05619,-13.28,-11.97,91.6,0,108.7,13.97,-12.57,47.6
"2009-01-26 00:35:30",573547,5.848,82.8,4.488,0.703,-5.617,95.05565,-13.28,-11.99,91.6,0,108.7,13.97,-12.58,44.8
"2009-01-26 00:36:00",573548,6.069,79.95,3.496,0.49,-5.592,95.05761,-13.28,-11.97,91.6,0,108.7,13.97,-12.57,41.9
"2009-01-26 00:36:30",573549,5.902,79.64,2.664,0.68,-5.619,95.05901,-13.27,-11.98,91.5,0,108.7,13.97,-12.57,41.6
"2009-01-26 00:37:00",573550,5.833,78.25,3.587,0.614,-5.348,95.06132,-13.27,-11.95,91.5,0,108.7,13.97,-12.56,40.2
"2009-01-26 00:37:30",573551,5.911,77.32,3.603,0.595,-5.185,95.06325,-13.26,-11.96,91.5,0,108.7,13.97,-12.56,39.3
"2009-01-26 00:38:00",573552,6.058,79.31,3.343,0.583,-5.206,95.06331,-13.26,-11.96,91.5,0,108.7,13.97,-12.56,41.3
"2009-01-26 00:38:30",573553,5.971,80.5,3.569,0.437,-5.398,95.06441,-13.26,-11.97,91.5,0,108.7,13.97,-12.55,42.5
"2009-01-26 00:39:00",573554,5.78,79.78,3.546,0.572,-5.327,95.0641,-13.26,-11.95,91.5,0,108.7,13.97,-12.55,41.8
"2009-01-26 00:39:30",573555,5.741,79.71,4.02,0.595,-5.467,95.06412,-13.26,-11.94,91.5,0,108.7,13.97,-12.55,41.7
"2009-01-26 00:40:00",573556,5.524,79.75,2.346,0.686,-5.296,95.06577,-13.25,-11.95,91.5,0,108.7,13.97,-12.55,41.8
"2009-01-26 00:40:30",573557,5.545,79.31,3.069,0.662,-5.209,95.06548,-13.26,-11.96,91.5,0,108.7,13.97,-12.55,41.3
"2009-01-26 00:41:00",573558,5.479,78.49,3.233,0.682,-5.187,95.06443,-13.26,-11.95,91.5,0,108.7,13.97,-12.55,40.5
"2009-01-26 00:41:30",573559,5.467,79.05,3.627,0.686,-5.134,95.06578,-13.25,-11.95,91.5,0,108.7,13.97,-12.55,41.1
"2009-01-26 00:42:00",573560,5.428,80.6,3.196,0.615,-5.025,95.07,-13.24,-11.95,91.5,0,108.7,13.97,-12.54,42.6
"2009-01-26 00:42:30",573561,5.355,82.6,3.254,0.587,-5.11,95.07425,-13.23,-11.96,91.6,0,108.7,13.97,-12.53,44.6
"2009-01-26 00:43:00",573562,5.214,85.5,3.644,0.691,-4.74,95.0751,-13.23,-11.94,91.6,0,108.7,13.97,-12.53,47.5
"2009-01-26 00:43:30",573563,5.074,89.1,3.664,0.68,-4.614,95.07629,-13.23,-11.94,91.6,0,108.7,13.97,-12.52,51.1
"2009-01-26 00:44:00",573564,4.976,91.5,2.479,0.686,-4.563,95.0856,-13.2,-11.93,91.6,0,108.7,13.97,-12.50,53.5
"2009-01-26 00:44:30",573565,5.049,90.2,3.203,0.672,-4.729,95.09405,-13.18,-11.95,91.6,0,108.7,13.97,-12.48,52.2
"2009-01-26 00:45:00",573566,4.965,88.6,2.71,0.699,-4.935,95.09164,-13.19,-11.92,91.7,0,108.7,13.97,-12.48,50.6
"2009-01-26 00:45:30",573567,4.885,87.4,2.945,0.746,-5.166,95.09408,-13.18,-11.9,91.7,0,108.7,13.96,-12.48,49.4
"2009-01-26 00:46:00",573568,4.926,92.7,2.735,0.772,-4.89,95.09164,-13.19,-11.94,91.7,0,108.7,13.96,-12.48,54.7
"2009-01-26 00:46:30",573569,5.308,96.6,3.481,0.709,-5.031,95.09327,-13.18,-11.91,91.7,0,108.7,13.96,-12.48,58.6
"2009-01-26 00:47:00",573570,5.367,96.6,3.275,0.677,-4.902,95.0911,-13.19,-11.89,91.7,0,108.7,13.96,-12.48,58.6
"2009-01-26 00:47:30",573571,5.214,96.7,2.204,0.757,-5.261,95.09554,-13.18,-11.9,91.7,0,108.7,13.96,-12.47,58.7
"2009-01-26 00:48:00",573572,5.297,91.6,3.838,0.766,-5.25,95.10181,-13.16,-11.89,91.8,0,108.7,13.96,-12.46,53.6
"2009-01-26 00:48:30",573573,5.335,87.3,3.557,0.621,-5.474,95.11459,-13.13,-11.87,91.8,0,108.7,13.96,-12.42,49.3
"2009-01-26 00:49:00",573574,5.498,85.4,3.706,0.607,-5.346,95.12107,-13.11,-11.86,91.8,0,108.7,13.96,-12.41,47.4
"2009-01-26 00:49:30",573575,5.713,86.2,3.162,0.71,-5.402,95.1175,-13.12,-11.86,91.8,0,108.7,13.96,-12.42,48.2
"2009-01-26 00:50:00",573576,5.75,87.2,2.929,0.777,-5.307,95.10887,-13.14,-11.86,91.7,0,108.7,13.96,-12.44,49.2
"2009-01-26 00:50:30",573577,5.693,89.4,2.945,0.692,-5.283,95.10339,-13.16,-11.85,91.6,0,108.7,13.97,-12.45,51.4
"2009-01-26 00:51:00",573578,5.281,89.2,2.684,0.758,-4.957,95.09839,-13.17,-11.84,91.6,0,108.7,13.97,-12.47,51.2
"2009-01-26 00:51:30",573579,5.161,90.7,2.941,0.666,-4.727,95.09692,-13.18,-11.86,91.6,0,108.7,13.97,-12.47,52.7
"2009-01-26 00:52:00",573580,4.966,92.1,1.66,0.762,-4.723,95.09975,-13.17,-11.87,91.6,0,108.7,13.97,-12.46,54.1
"2009-01-26 00:52:30",573581,4.916,93.2,3.289,0.574,-4.619,95.09982,-13.17,-11.86,91.6,0,108.7,13.97,-12.46,55.2
"2009-01-26 00:53:00",573582,4.689,93.1,2.798,0.665,-4.801,95.10235,-13.16,-11.85,91.6,0,108.7,13.97,-12.46,55.1
"2009-01-26 00:53:30",573583,4.643,90.8,2.142,0.766,-5.007,95.11221,-13.14,-11.86,91.7,0,108.7,13.97,-12.43,52.8
"2009-01-26 00:54:00",573584,4.694,87.7,3.337,0.679,-4.876,95.12307,-13.11,-11.86,91.7,0,108.7,13.97,-12.40,49.7
"2009-01-26 00:54:30",573585,4.99,86.2,3.07,0.576,-5.295,95.12788,-13.1,-11.85,91.7,0,108.8,13.97,-12.39,48.2
"2009-01-26 00:55:00",573586,5.143,84.6,3.063,0.695,-5.562,95.12981,-13.09,-11.83,91.7,0,108.7,13.97,-12.39,46.6
"2009-01-26 00:55:30",573587,5.229,85,3.111,0.683,-5.335,95.12981,-13.09,-11.83,91.7,0,108.7,13.97,-12.39,47.0
"2009-01-26 00:56:00",573588,5.154,86.9,1.671,0.755,-5.217,95.1287,-13.09,-11.84,91.7,0,108.7,13.97,-12.39,48.9
"2009-01-26 00:56:30",573589,5.293,87.7,2.667,0.578,-5.163,95.12698,-13.1,-11.85,91.6,0,108.7,13.97,-12.39,49.7
"2009-01-26 00:57:00",573590,5.205,88.4,2.589,0.696,-5.084,95.12419,-13.11,-11.83,91.6,0,108.7,13.97,-12.40,50.4
"2009-01-26 00:57:30",573591,5.047,89.6,2.776,0.755,-4.938,95.12073,-13.11,-11.86,91.6,0,108.7,13.97,-12.41,51.6
"2009-01-26 00:58:00",573592,5.295,91.8,3.492,0.679,-4.687,95.12012,-13.12,-11.85,91.6,0,108.7,13.97,-12.41,53.8
"2009-01-26 00:58:30",573593,5.429,93,2.042,0.669,-4.964,95.11613,-13.13,-11.84,91.6,0,108.8,13.97,-12.42,55.0
"2009-01-26 00:59:00",573594,5.458,88.3,4.155,0.625,-5.349,95.10905,-13.14,-11.84,91.6,0,108.7,13.97,-12.44,50.3
"2009-01-26 00:59:30",573595,4.945,93.1,4.504,0.717,-4.99,95.10616,-13.15,-11.83,91.5,0,108.7,13.97,-12.45,55.1
"2009-01-26 01:00:00",573596,5.139,94.6,3.591,0.699,-4.73,95.10054,-13.17,-11.86,91.5,0,108.7,13.97,-12.46,56.6
"2009-01-26 01:00:30",573597,5.348,93.3,3.285,0.51,-4.983,95.09734,-13.17,-11.88,91.4,0,108.7,13.97,-12.47,55.3
"2009-01-26 01:01:00",573598,5.255,91.7,2.687,0.672,-5.035,95.09597,-13.18,-11.85,91.4,0,108.7,13.97,-12.47,53.7
"2009-01-26 01:01:30",573599,5.387,91.4,2.774,0.691,-5.107,95.09408,-13.18,-11.87,91.4,0,108.7,13.97,-12.48,53.4
"2009-01-26 01:02:00",573600,5.289,91.2,2.794,0.691,-4.888,95.09814,-13.17,-11.87,91.4,0,108.7,13.97,-12.47,53.2
"2009-01-26 01:02:30",573601,5.084,90.4,1.743,0.667,-5.054,95.09732,-13.17,-11.87,91.4,0,108.7,13.97,-12.47,52.4
"2009-01-26 01:03:00",573602,5.081,88.5,2.486,0.695,-5.005,95.0957,-13.18,-11.88,91.5,0,108.7,13.97,-12.47,50.5
"2009-01-26 01:03:30",573603,5.355,90.5,2.748,0.68,-5.092,95.09597,-13.18,-11.89,91.5,0,108.7,13.96,-12.47,52.5
"2009-01-26 01:04:00",573604,5.315,89.9,2.591,0.685,-5.069,95.09759,-13.17,-11.88,91.5,0,108.7,13.96,-12.47,51.9
"2009-01-26 01:04:30",573605,5.234,88.1,2.897,0.615,-5.397,95.09705,-13.17,-11.9,91.5,0,108.7,13.96,-12.47,50.1
"2009-01-26 01:05:00",573606,5.206,87,2.544,0.695,-5.647,95.09597,-13.18,-11.88,91.5,0,108.7,13.96,-12.47,49.0
"2009-01-26 01:05:30",573607,4.975,84.3,3.623,0.688,-5.678,95.09624,-13.18,-11.89,91.5,0,108.7,13.97,-12.47,46.3
"2009-01-26 01:06:00",573608,5.561,83.6,2.632,0.657,-5.522,95.09759,-13.17,-11.88,91.4,0,108.7,13.96,-12.47,45.6
"2009-01-26 01:06:30",573609,5.519,81.6,3.406,0.499,-5.561,95.0984,-13.17,-11.89,91.4,0,108.7,13.97,-12.47,43.6
"2009-01-26 01:07:00",573610,5.194,84.1,2.747,0.602,-5.419,95.09058,-13.19,-11.91,91.4,0,108.7,13.97,-12.49,46.1
"2009-01-26 01:07:30",573611,5.381,87,2.71,0.758,-5.196,95.08125,-13.22,-11.91,91.4,0,108.7,13.97,-12.51,49.0
"2009-01-26 01:08:00",573612,5.435,88.7,3.908,0.687,-4.992,95.07975,-13.22,-11.91,91.4,0,108.7,13.97,-12.51,50.7
"2009-01-26 01:08:30",573613,5.614,92.1,2.95,0.604,-5.067,95.07835,-13.22,-11.92,91.4,0,108.7,13.97,-12.52,54.1
"2009-01-26 01:09:00",573614,5.404,91.7,3.084,0.59,-5.163,95.07777,-13.22,-11.92,91.4,0,108.7,13.97,-12.52,53.7
"2009-01-26 01:09:30",573615,5.387,92.8,3.19,0.597,-5.275,95.08027,-13.22,-11.94,91.4,0,108.7,13.97,-12.51,54.8
"2009-01-26 01:10:00",573616,5.362,92,3.375,0.613,-5.244,95.07714,-13.23,-11.93,91.4,0,108.7,13.97,-12.52,54.0
"2009-01-26 01:10:30",573617,5.356,87.8,3.237,0.476,-5.389,95.07482,-13.23,-11.94,91.3,0,108.7,13.97,-12.53,49.8
"2009-01-26 01:11:00",573618,5.299,90.9,3.429,0.573,-5.172,95.07066,-13.24,-11.93,91.4,0,108.7,13.97,-12.54,52.9
"2009-01-26 01:11:30",573619,5.237,91.5,4.061,0.613,-5.292,95.07144,-13.24,-11.95,91.3,0,108.7,13.97,-12.53,53.5
"2009-01-26 01:12:00",573620,5.199,90.9,4.76,0.607,-5.099,95.06893,-13.25,-11.93,91.4,0,108.7,13.97,-12.54,52.9
"2009-01-26 01:12:30",573621,5.559,86.6,3.4,0.575,-5.617,95.06749,-13.25,-11.96,91.3,0,108.7,13.97,-12.54,48.6
"2009-01-26 01:13:00",573622,5.547,87.3,3.238,0.622,-5.572,95.06714,-13.25,-11.94,91.4,0,108.7,13.97,-12.55,49.3
"2009-01-26 01:13:30",573623,5.656,86.6,3.3,0.583,-5.612,95.06432,-13.26,-11.95,91.4,0,108.7,13.97,-12.55,48.6
"2009-01-26 01:14:00",573624,5.7,88.4,3.626,0.475,-5.339,95.06429,-13.26,-11.96,91.3,0,108.7,13.97,-12.55,50.4
"2009-01-26 01:14:30",573625,5.803,88.9,2.87,0.424,-5.414,95.06402,-13.26,-11.97,91.4,0,108.7,13.97,-12.55,50.9
"2009-01-26 01:15:00",573626,5.603,89.9,3.45,0.58,-5.203,95.06322,-13.26,-11.96,91.4,0,108.7,13.97,-12.56,51.9
"2009-01-26 01:15:30",573627,5.289,89,3.825,0.609,-5.414,95.06322,-13.26,-11.97,91.3,0,108.7,13.97,-12.56,51.0
"2009-01-26 01:16:00",573628,5.518,85.2,4.194,0.586,-5.376,95.06429,-13.26,-11.98,91.4,0,108.7,13.97,-12.55,47.2
"2009-01-26 01:16:30",573629,5.185,88.1,3.786,0.622,-5.59,95.06483,-13.26,-11.98,91.3,0,108.7,13.97,-12.55,50.1
"2009-01-26 01:17:00",573630,4.98,90.3,2.914,0.718,-5.326,95.06565,-13.25,-11.98,91.4,0,108.7,13.97,-12.55,52.3
"2009-01-26 01:17:30",573631,5.306,90.8,3.802,0.575,-5.41,95.06564,-13.25,-11.99,91.4,0,108.7,13.97,-12.55,52.8
"2009-01-26 01:18:00",573632,5.258,88.7,3.255,0.572,-5.505,95.06615,-13.25,-11.98,91.3,0,108.7,13.97,-12.55,50.7
"2009-01-26 01:18:30",573633,5.741,83.8,3.031,0.616,-5.906,95.06611,-13.25,-11.99,91.4,0,108.7,13.97,-12.55,45.8
"2009-01-26 01:19:00",573634,5.878,88.7,3.291,0.665,-5.786,95.06398,-13.26,-11.97,91.4,0,108.7,13.97,-12.55,50.7
"2009-01-26 01:19:30",573635,5.715,86.9,3.816,0.693,-5.854,95.06618,-13.25,-12.01,91.4,0,108.7,13.97,-12.55,48.9
"2009-01-26 01:20:00",573636,5.327,92.1,3.042,0.765,-5.817,95.06426,-13.26,-11.99,91.4,0,108.7,13.97,-12.55,54.1
"2009-01-26 01:20:30",573637,4.998,86.5,5.493,0.347,-5.507,95.06834,-13.25,-11.99,91.4,0,108.7,13.97,-12.54,48.5
"2009-01-26 01:21:00",573638,5.026,85.8,5.146,0.611,-5.744,95.06457,-13.26,-11.98,91.4,0,108.7,13.97,-12.55,47.8
"2009-01-26 01:21:30",573639,5.497,89.6,4.094,0.522,-5.463,95.06673,-13.25,-11.98,91.4,0,108.7,13.97,-12.55,51.6
"2009-01-26 01:22:00",573640,5.612,94,4.379,0.652,-5.518,95.0651,-13.26,-11.98,91.4,0,108.7,13.97,-12.55,56.0
"2009-01-26 01:22:30",573641,5.621,91.7,3.713,0.503,-5.771,95.06592,-13.25,-11.99,91.4,0,108.7,13.97,-12.55,53.7
"2009-01-26 01:23:00",573642,5.261,93.7,5.869,0.649,-5.735,95.06457,-13.26,-11.98,91.4,0,108.7,13.97,-12.55,55.7
"2009-01-26 01:23:30",573643,5.228,90.6,3.615,0.723,-5.784,95.0651,-13.26,-11.99,91.4,0,108.7,13.97,-12.55,52.6
"2009-01-26 01:24:00",573644,5.884,91.6,3.364,0.587,-5.712,95.06727,-13.25,-11.99,91.4,0,108.7,13.97,-12.55,53.6
"2009-01-26 01:24:30",573645,5.694,91.5,3.365,0.313,-5.635,95.06727,-13.25,-11.97,91.5,0,108.7,13.97,-12.55,53.5
"2009-01-26 01:25:00",573646,5.627,87.3,3.174,0.733,-5.769,95.06835,-13.25,-11.98,91.5,0,108.7,13.97,-12.54,49.3
"2009-01-26 01:25:30",573647,5.947,94.5,3.763,0.609,-5.76,95.06727,-13.25,-11.99,91.5,0,108.7,13.97,-12.55,56.5
"2009-01-26 01:26:00",573648,6.178,93.5,4.027,0.473,-5.975,95.06727,-13.25,-11.99,91.5,0,108.7,13.97,-12.55,55.5
"2009-01-26 01:26:30",573649,6.156,94.9,4.53,0.416,-5.792,95.06754,-13.25,-11.98,91.5,0,108.6,13.97,-12.54,56.9
"2009-01-26 01:27:00",573650,5.599,93.8,5.17,0.703,-5.92,95.06673,-13.25,-11.98,91.5,0,108.7,13.97,-12.55,55.8
"2009-01-26 01:27:30",573651,5.609,87.4,3.97,0.591,-5.814,95.06592,-13.25,-11.98,91.5,0,108.7,13.97,-12.55,49.4
"2009-01-26 01:28:00",573652,5.82,89.7,3.813,0.617,-5.725,95.0678,-13.25,-11.98,91.5,0,108.7,13.97,-12.54,51.7
"2009-01-26 01:28:30",573653,5.654,89.1,3.868,0.322,-5.759,95.06673,-13.25,-11.98,91.5,0,108.7,13.97,-12.55,51.1
"2009-01-26 01:29:00",573654,5.413,86.7,3.588,0.466,-5.608,95.06727,-13.25,-11.97,91.5,0,108.7,13.97,-12.55,48.7
"2009-01-26 01:29:30",573655,5.208,89,4.088,0.344,-5.516,95.06889,-13.25,-11.99,91.5,0,108.7,13.97,-12.54,51.0
"2009-01-26 01:30:00",573656,5.206,91.8,3.615,0.41,-5.45,95.06916,-13.25,-11.98,91.5,0,108.7,13.97,-12.54,53.8
"2009-01-26 01:30:30",573657,5.533,92.7,3.052,0.454,-5.634,95.06808,-13.25,-11.97,91.4,0,108.7,13.97,-12.54,54.7
"2009-01-26 01:31:00",573658,5.954,95.4,3.909,0.361,-5.688,95.07078,-13.24,-11.96,91.4,0,108.7,13.97,-12.54,57.4
"2009-01-26 01:31:30",573659,6.067,97.2,4.163,0.351,-5.775,95.07078,-13.24,-11.98,91.4,0,108.7,13.97,-12.54,59.2
"2009-01-26 01:32:00",573660,5.923,94,4.082,0.343,-5.544,95.06725,-13.25,-11.99,91.4,0,108.7,13.97,-12.55,56.0
"2009-01-26 01:32:30",573661,5.932,91.2,3.61,0.281,-5.755,95.06889,-13.25,-11.98,91.4,0,108.7,13.98,-12.54,53.2
"2009-01-26 01:33:00",573662,5.729,89.8,3.588,0.334,-5.707,95.06266,-13.26,-11.99,91.4,0,108.7,13.97,-12.56,51.8
"2009-01-26 01:33:30",573663,5.601,87.7,3.63,0.502,-5.704,95.0563,-13.28,-11.99,91.3,0,108.7,13.97,-12.57,49.7
"2009-01-26 01:34:00",573664,5.579,87.7,3.433,0.469,-5.712,95.05148,-13.29,-12.01,91.3,0,108.7,13.98,-12.59,49.7
"2009-01-26 01:34:30",573665,5.462,91.1,3.07,0.482,-5.519,95.05172,-13.29,-12,91.3,0,108.7,13.98,-12.59,53.1
"2009-01-26 01:35:00",573666,5.235,92.1,3.864,0.356,-5.375,95.05031,-13.29,-11.99,91.3,0,108.7,13.97,-12.59,54.1
"2009-01-26 01:35:30",573667,4.945,90.2,4.183,0.491,-5.304,95.05114,-13.29,-12.01,91.3,0,108.7,13.97,-12.59,52.2
"2009-01-26 01:36:00",573668,4.877,91.2,3.609,0.441,-5.35,95.04996,-13.29,-12,91.3,0,108.7,13.97,-12.59,53.2
"2009-01-26 01:36:30",573669,4.997,89.9,3.91,0.284,-5.657,95.04751,-13.3,-12.01,91.3,0,108.7,13.97,-12.60,51.9
"2009-01-26 01:37:00",573670,5.419,83.4,4.279,0.438,-6.001,95.04832,-13.3,-12.02,91.4,0,108.7,13.97,-12.59,45.4
"2009-01-26 01:37:30",573671,5.529,82.2,4.021,0.585,-5.729,95.05116,-13.29,-12,91.4,0,108.7,13.97,-12.59,44.2
"2009-01-26 01:38:00",573672,5.757,82.4,4.15,0.276,-5.815,95.05116,-13.29,-12,91.4,0,108.7,13.97,-12.59,44.4
"2009-01-26 01:38:30",573673,5.665,80.9,3.516,0.347,-5.628,95.06615,-13.25,-12,91.5,0,108.7,13.97,-12.55,42.9
"2009-01-26 01:39:00",573674,5.349,80.2,3.671,0.495,-5.848,95.07212,-13.24,-12,91.5,0,108.7,13.97,-12.53,42.2
"2009-01-26 01:39:30",573675,5.004,81.3,3.595,0.482,-5.837,95.07186,-13.24,-11.99,91.5,0,108.7,13.97,-12.53,43.3
"2009-01-26 01:40:00",573676,4.991,76.9,3.628,0.484,-5.627,95.07079,-13.24,-11.99,91.5,0,108.7,13.97,-12.54,38.9
"2009-01-26 01:40:30",573677,5.031,75.64,2.954,0.454,-5.691,95.07247,-13.24,-11.98,91.5,0,108.7,13.97,-12.53,37.6
"2009-01-26 01:41:00",573678,5.135,74.93,3.713,0.35,-5.778,95.07951,-13.22,-11.99,91.6,0,108.7,13.97,-12.51,36.9
"2009-01-26 01:41:30",573679,5.194,75.17,3.666,0.477,-5.699,95.08071,-13.22,-11.96,91.6,0,108.7,13.97,-12.51,37.2
"2009-01-26 01:42:00",573680,5.357,75.23,4.027,0.47,-5.6,95.0883,-13.2,-11.95,91.6,0,108.7,13.97,-12.49,37.2
"2009-01-26 01:42:30",573681,5.455,75.86,3.061,0.429,-5.749,95.08749,-13.2,-11.95,91.6,0,108.7,13.98,-12.49,37.9
"2009-01-26 01:43:00",573682,5.39,75.2,4.012,0.595,-5.518,95.08809,-13.2,-11.92,91.6,0,108.7,13.98,-12.49,37.2
"2009-01-26 01:43:30",573683,5.169,75.49,3.752,0.503,-5.668,95.09204,-13.19,-11.96,91.7,0,108.7,13.98,-12.48,37.5
"2009-01-26 01:44:00",573684,5.161,75.3,4.095,0.335,-5.701,95.10286,-13.16,-11.94,91.7,0,108.7,13.98,-12.45,37.3
"2009-01-26 01:44:30",573685,5.231,72.79,3.571,0.303,-5.598,95.10485,-13.16,-11.93,91.6,0,108.7,13.98,-12.45,34.8
"2009-01-26 01:45:00",573686,5.343,72.68,4.024,0.495,-5.617,95.10597,-13.15,-11.91,91.7,0,108.7,13.98,-12.45,34.7
"2009-01-26 01:45:30",573687,5.52,75.44,3.69,0.479,-5.789,95.10544,-13.15,-11.92,91.7,0,108.7,13.98,-12.45,37.4
"2009-01-26 01:46:00",573688,5.559,76.1,3.511,0.548,-5.95,95.10462,-13.16,-11.9,91.7,0,108.7,13.98,-12.45,38.1